Погода в Выборном

Россия / Пензенская область     53°47′21″N   43°00′22″E
темп.,
°C
ветер,
м/с
пор.,
м/с
влажн.,
%
обл.,
%
осадки,
мм/ч
давл.,
гПа
погр.,
м
15 мая, сб
сб1500:00+18ююв5138362 0.1 1014230
03:00+16ююв51382100 0.1 1013223
06:00+17ююв61379100 0.0 1013316
09:00+20ю7117278 0.0 1013446
12:00+23ю71259100 0.0 1014846
15:00+23ююз695961 0.0 10141406
18:00+22ю496816 0.0 1013348
21:00+18ю36845 0.1 101485
16 мая, вс
вс1600:00+16юз22935 0.5 101433
03:00+15зюз229452 0.5 101523
06:00+17зюз0085100 0.0 101542
09:00+21ююв1167100 0.0 1016441
12:00+23ю236119 0.6 10161047
15:00+24юз45635 4.8 10151062
18:00+23юз24735 0.8 1014183
21:00+18ю337851 0.8 101530
17 мая, пн
пн1700:00+16ююв117922 0.0 101611
03:00+15вюв337786 0.0 101622
06:00+16вюв368025 0.0 1016115
09:00+22юв476081 0.0 1016376
12:00+25ююв684598 0.0 1016847
15:00+25ююв485589 0.0 1015910
18:00+23юв496639 0.0 1014262
21:00+19юв410700 0.0 1015149
18 мая, вт
вт1800:00+17юв513610 0.0 1014203
03:00+16вюв514585 0.0 1013189
06:00+16юв513665 0.0 1013225
09:00+22юв612566 0.0 1013428
12:00+26юв6104499 0.0 1012838
15:00+26юв7114956 0.0 10111080
18:00+23юв61361100 0.0 1010402
21:00+20вюв5166497 0.0 1010320
19 мая, ср
ср1900:00+18ююв495895 0.0 1010159
03:00+17юв5135487 0.0 1009305
06:00+15ююз237896 0.0 1009102
09:00+20вюв3473100 0.0 1009258
12:00+19ю51178100 0.3 1010657
15:00+22ю6961100 0.5 10101371
18:00+19ююз51081100 4.6 1010681
21:00+15ююз4892100 5.3 1011156